Weather reports worldwide

Advertisment
Koblenz/Falkensteinkaserne, Germany (10516): temperature & dewpoint: 10.01.2018 08:00:00 - 16.01.2018 08:00:00 (CET)Koblenz/Falkensteinkaserne, Germany (10516): wind speed: 10.01.2018 08:00:00 - 16.01.2018 08:00:00 (CET)Koblenz/Falkensteinkaserne, Germany (10516): wind direction: 10.01.2018 08:00:00 - 16.01.2018 08:00:00 (CET)Koblenz/Falkensteinkaserne, Germany (10516): reduced air pressure: 10.01.2018 08:00:00 - 16.01.2018 08:00:00 (CET)Koblenz/Falkensteinkaserne, Germany (10516): visibility: 10.01.2018 08:00:00 - 16.01.2018 08:00:00 (CET)
Date & Time tt [°C] td [°C] ff [km/h] ff [kn] dd ppp [hPa] vv [km]
16.01.2018 08:00:00 4,9 2,1 4 2 SW 994,7 18
16.01.2018 07:00:00 6,4 2,1 14 8 W 994,8 18
16.01.2018 06:00:00 6,3 3,1 11 6 WSW 994,9 -
16.01.2018 05:00:00 7,0 2,4 11 6 SW 995,8 -
16.01.2018 04:00:00 7,0 2,7 11 6 WSW 996,6 -
16.01.2018 03:00:00 7,4 2,0 14 8 W 996,9 -
16.01.2018 02:00:00 7,7 3,0 11 6 WSW 996,7 -
16.01.2018 01:00:00 7,9 3,5 11 6 SSW 996,2 -
16.01.2018 00:00:00 7,5 4,3 18 10 SSW 996,3 -
15.01.2018 23:00:00 6,8 3,2 18 10 SSW 996,4 -
15.01.2018 22:00:00 6,3 2,0 11 6 S 998,0 -
15.01.2018 21:00:00 6,0 2,2 11 6 S 998,8 12
15.01.2018 20:00:00 6,0 2,7 11 6 S 999,8 8
15.01.2018 19:00:00 6,2 3,1 14 8 SSE 1001,0 10
15.01.2018 18:00:00 6,2 2,4 14 8 SSE 1002,4 15
15.01.2018 17:00:00 5,8 2,1 14 8 SSE 1004,6 10
15.01.2018 16:00:00 5,8 1,6 11 6 SSE 1006,5 12
15.01.2018 15:00:00 5,9 1,2 11 6 SSE 1007,2 15
15.01.2018 14:00:00 5,2 0,9 11 6 SE 1009,7 12
15.01.2018 13:00:00 5,0 0,4 11 6 SSE 1011,7 15
15.01.2018 12:00:00 4,5 0,2 11 6 SSE 1013,1 15
15.01.2018 11:00:00 3,6 -0,5 11 6 SSE 1014,8 12
15.01.2018 10:00:00 3,1 -0,9 11 6 SSE 1015,6 12
15.01.2018 09:00:00 2,8 -1,3 14 8 SSE 1016,1 12
15.01.2018 08:00:00 2,6 -1,3 7 4 S 1016,9 15
15.01.2018 07:00:00 2,3 -1,6 7 4 SSE 1017,5 15
15.01.2018 06:00:00 2,2 -1,7 7 4 N 1017,8 -
15.01.2018 05:00:00 - - - - - - -
15.01.2018 04:00:00 1,9 -2,0 4 2 N 1019,5 -
15.01.2018 03:00:00 0,3 -1,5 4 2 N 1020,3 -
15.01.2018 02:00:00 -1,0 -2,1 4 2 N 1020,8 -
15.01.2018 01:00:00 -0,3 -1,4 4 2 N 1021,4 -
15.01.2018 00:00:00 -1,2 -2,2 4 2 N 1022,1 -
14.01.2018 23:00:00 -0,9 -2,2 4 2 SW 1022,2 -
14.01.2018 22:00:00 -0,1 -1,6 4 2 N 1022,6 -
14.01.2018 21:00:00 0,1 -2,6 4 2 N 1022,6 -
14.01.2018 20:00:00 2,1 -2,4 4 2 N 1022,4 -
14.01.2018 19:00:00 2,5 -2,3 7 4 N 1022,3 -
14.01.2018 18:00:00 3,7 -2,3 7 4 SE 1022,3 -
14.01.2018 17:00:00 3,8 -2,5 11 6 SSE 1022,3 -
14.01.2018 16:00:00 4,0 -2,4 11 6 ESE 1022,3 -
14.01.2018 15:00:00 4,0 -2,2 11 6 ESE 1022,0 -
14.01.2018 14:00:00 4,0 -2,3 7 4 SE 1022,2 -
14.01.2018 13:00:00 3,6 -2,6 11 6 ESE 1022,6 -
14.01.2018 12:00:00 3,2 -2,4 11 6 SE 1022,9 -
14.01.2018 11:00:00 2,9 -2,5 11 6 ESE 1023,3 -
14.01.2018 10:00:00 2,8 -2,3 7 4 SE 1023,1 -
14.01.2018 09:00:00 2,7 -2,2 11 6 SE 1022,6 -
14.01.2018 08:00:00 3,0 -1,8 7 4 SE 1022,4 -
14.01.2018 07:00:00 3,1 -1,7 7 4 ESE 1022,4 -
14.01.2018 06:00:00 3,3 -1,5 11 6 ESE 1022,1 -
14.01.2018 05:00:00 3,6 -1,1 7 4 ESE 1022,0 -
14.01.2018 04:00:00 3,9 -0,8 11 6 ESE 1022,0 -
14.01.2018 03:00:00 4,2 -0,8 14 8 E 1022,0 -
14.01.2018 02:00:00 4,5 -0,9 14 8 E 1022,2 -
14.01.2018 01:00:00 4,7 -0,8 14 8 E 1022,4 -
14.01.2018 00:00:00 5,0 -0,5 11 6 E 1022,8 -
13.01.2018 23:00:00 5,2 -0,5 11 6 ESE 1023,0 -
13.01.2018 22:00:00 5,3 -0,5 11 6 ESE 1023,1 -
13.01.2018 21:00:00 5,5 -0,5 11 6 E 1023,3 -
13.01.2018 20:00:00 5,6 -0,6 11 6 E 1023,4 -
13.01.2018 19:00:00 5,8 -1,0 7 4 E 1023,7 -
13.01.2018 18:00:00 5,9 -1,1 11 6 ESE 1023,8 -
13.01.2018 17:00:00 5,9 -0,8 7 4 ESE 1024,0 -
13.01.2018 16:00:00 6,1 -0,6 11 6 E 1024,2 -
13.01.2018 15:00:00 6,2 -1,0 11 6 E 1024,7 -
13.01.2018 14:00:00 5,9 0,5 7 4 N 1025,4 -
13.01.2018 13:00:00 5,7 0,9 7 4 E 1026,1 -
13.01.2018 12:00:00 5,7 0,7 7 4 N 1026,5 -
13.01.2018 11:00:00 4,9 0,7 7 4 E 1026,9 -
13.01.2018 10:00:00 4,5 0,5 7 4 N 1026,8 -
13.01.2018 09:00:00 4,2 0,5 11 6 SE 1026,8 -
13.01.2018 08:00:00 4,8 1,2 11 6 ESE 1026,5 -
13.01.2018 07:00:00 5,6 2,3 7 4 SE 1026,2 -
13.01.2018 06:00:00 5,7 2,3 7 4 N 1026,1 -
13.01.2018 05:00:00 5,8 2,8 7 4 ESE 1026,2 -
13.01.2018 04:00:00 5,9 3,4 4 2 N 1026,5 -
13.01.2018 03:00:00 6,0 3,9 7 4 SE 1026,9 -
13.01.2018 02:00:00 5,8 4,6 4 2 E 1026,8 -
13.01.2018 01:00:00 5,6 4,5 0 0 N 1026,9 -
13.01.2018 00:00:00 5,5 4,4 4 2 WNW 1027,3 -
12.01.2018 23:00:00 5,8 4,5 4 2 WNW 1027,2 -
12.01.2018 22:00:00 5,8 4,6 4 2 N 1027,2 -
12.01.2018 21:00:00 5,8 4,7 4 2 NNE 1027,0 -
12.01.2018 20:00:00 5,7 4,7 4 2 WSW 1026,8 -
12.01.2018 19:00:00 5,5 4,4 4 2 E 1026,9 -
12.01.2018 18:00:00 6,1 4,7 4 2 NW 1026,9 -
12.01.2018 17:00:00 6,2 4,8 4 2 N 1026,8 -
12.01.2018 16:00:00 6,8 4,3 4 2 NW 1026,4 -
12.01.2018 15:00:00 6,9 4,3 7 4 NW 1026,1 -
12.01.2018 14:00:00 6,8 4,7 7 4 WNW 1026,1 -
12.01.2018 13:00:00 6,6 4,8 7 4 WNW 1026,2 -
12.01.2018 12:00:00 6,3 4,9 7 4 NW 1026,5 -
12.01.2018 11:00:00 6,0 4,8 7 4 NW 1026,6 -
12.01.2018 10:00:00 6,2 5,0 7 4 N 1025,9 -
12.01.2018 09:00:00 6,2 4,9 4 2 NW 1025,3 -
12.01.2018 08:00:00 6,1 4,7 4 2 WNW 1024,8 -
12.01.2018 07:00:00 5,8 4,8 4 2 NNE 1024,5 -
12.01.2018 06:00:00 5,8 4,6 4 2 NW 1024,3 -
12.01.2018 05:00:00 5,9 4,8 4 2 NW 1024,2 -
12.01.2018 04:00:00 5,8 4,8 4 2 WNW 1024,0 -
12.01.2018 03:00:00 6,0 4,8 4 2 N 1023,6 -
12.01.2018 02:00:00 6,0 4,9 4 2 WNW 1023,2 -
12.01.2018 01:00:00 6,1 4,9 4 2 N 1022,9 -
12.01.2018 00:00:00 6,2 4,9 4 2 NNE 1022,7 -
11.01.2018 23:00:00 6,3 4,9 0 0 N 1022,2 -
11.01.2018 22:00:00 6,2 4,7 4 2 N 1021,7 -
11.01.2018 21:00:00 6,0 4,7 4 2 NNW 1021,3 15
11.01.2018 20:00:00 6,5 4,6 4 2 NNW 1020,7 15
11.01.2018 19:00:00 7,1 4,6 7 4 NNW 1020,0 15
11.01.2018 18:00:00 7,9 3,9 7 4 NNE 1019,5 15
11.01.2018 17:00:00 8,0 5,4 7 4 N 1018,8 15
11.01.2018 16:00:00 8,2 5,5 4 2 N 1018,1 15
11.01.2018 15:00:00 8,4 5,2 7 4 NNW 1017,5 15
11.01.2018 14:00:00 8,6 5,3 4 2 E 1016,9 15
11.01.2018 13:00:00 7,9 5,2 4 2 NNW 1016,7 15
11.01.2018 12:00:00 7,5 5,0 4 2 NE 1016,8 15
11.01.2018 11:00:00 7,1 5,5 4 2 N 1016,5 15
11.01.2018 10:00:00 6,6 5,6 4 2 NW 1015,9 13
11.01.2018 09:00:00 6,3 5,2 0 0 N 1015,2 13
11.01.2018 08:00:00 6,5 5,0 4 2 N 1014,4 13
11.01.2018 07:00:00 6,3 4,7 4 2 NNE 1013,8 15
11.01.2018 06:00:00 6,6 4,8 4 2 N 1013,3 -
11.01.2018 05:00:00 6,7 4,6 4 2 N 1012,9 -
11.01.2018 04:00:00 6,8 4,8 7 4 N 1012,7 -
11.01.2018 03:00:00 6,8 4,9 7 4 N 1012,2 -
11.01.2018 02:00:00 6,9 4,9 4 2 N 1012,1 -
11.01.2018 01:00:00 6,8 4,8 4 2 N 1012,1 -
11.01.2018 00:00:00 7,0 4,9 4 2 SSE 1012,1 -
10.01.2018 23:00:00 7,0 5,1 4 2 ESE 1011,7 -
10.01.2018 22:00:00 7,1 4,9 4 2 SW 1011,6 -
10.01.2018 21:00:00 7,4 4,6 4 2 S 1011,4 15
10.01.2018 20:00:00 8,3 3,6 7 4 SSE 1011,2 15
10.01.2018 19:00:00 8,5 3,5 7 4 SE 1010,5 15
10.01.2018 18:00:00 8,5 3,3 7 4 N 1010,3 15
10.01.2018 17:00:00 8,8 3,1 7 4 SSE 1010,4 15
10.01.2018 16:00:00 9,8 3,0 7 4 SSE 1010,1 15
10.01.2018 15:00:00 10,6 3,0 7 4 S 1009,6 15
10.01.2018 14:00:00 10,3 2,6 11 6 SSW 1009,9 15
10.01.2018 13:00:00 9,9 3,5 7 4 SSE 1010,4 15
10.01.2018 12:00:00 8,4 3,6 7 4 SSE 1011,3 15
10.01.2018 11:00:00 8,2 3,5 11 6 SSE 1011,7 15
10.01.2018 10:00:00 7,6 4,1 7 4 N 1011,7 15
10.01.2018 09:00:00 7,0 4,5 7 4 SSE 1011,7 15
10.01.2018 08:00:00 6,7 4,6 4 2 ESE 1011,3 13

tt = temperature
td = dewpoint
ff = wind speed
dd = wind direction
ppp = reduced air pressure
vv = visibility

Next stations